Time,TemperatureF,DewpointF,PressureIn,WindDirection,WindDirectionDegrees,WindSpeedMPH,WindSpeedGustMPH,Humidity,HourlyPrecipIn,Conditions,Clouds,dailyrainin,SoftwareType,DateUTC
2013-03-25 00:00:00,43.6,23.5,30.15,NNE,23,0.0,4.0,45,0.00,,,0.00,WUHU216DAVISVP2,2013-03-25 05:00:00,
2013-03-25 00:05:00,43.4,23.3,30.15,NNE,20,3.2,3.2,45,0.00,,,0.00,WUHU216DAVISVP2,2013-03-25 05:05:00,
2013-03-25 00:10:00,43.3,23.8,30.15,NNE,27,2.1,4.2,46,0.00,,,0.00,WUHU216DAVISVP2,2013-03-25 05:10:00,
2013-03-25 00:15:00,43.4,23.9,30.15,NNE,12,3.2,6.3,46,0.00,,,0.00,WUHU216DAVISVP2,2013-03-25 05:15:00,
2013-03-25 00:20:00,43.7,24.2,30.15,NE,36,4.2,7.3,46,0.00,,,0.00,WUHU216DAVISVP2,2013-03-25 05:20:00,
2013-03-25 00:25:00,44.0,24.5,30.15,NNE,21,5.3,7.3,46,0.00,,,0.00,WUHU216DAVISVP2,2013-03-25 05:25:00,
2013-03-25 00:30:00,44.2,24.6,30.15,NNE,28,4.2,7.3,46,0.00,,,0.00,WUHU216DAVISVP2,2013-03-25 05:30:00,
2013-03-25 00:35:00,44.4,24.3,30.15,NNE,32,2.1,7.3,45,0.00,,,0.00,WUHU216DAVISVP2,2013-03-25 05:35:00,
2013-03-25 00:40:00,44.3,24.2,30.15,NNE,27,3.2,7.0,45,0.00,,,0.00,WUHU216DAVISVP2,2013-03-25 05:40:00,
2013-03-25 00:45:00,44.2,24.6,30.15,NE,43,3.2,7.0,46,0.00,,,0.00,WUHU216DAVISVP2,2013-03-25 05:45:00,
2013-03-25 00:50:00,44.2,24.1,30.15,North,2,4.2,6.0,45,0.00,,,0.00,WUHU216DAVISVP2,2013-03-25 05:50:00,
2013-03-25 00:55:00,43.9,24.3,30.16,NE,35,1.0,6.0,46,0.00,,,0.00,WUHU216DAVISVP2,2013-03-25 05:55:00,
2013-03-25 01:00:00,43.7,24.2,30.16,NNE,20,2.1,5.3,46,0.00,,,0.00,WUHU216DAVISVP2,2013-03-25 06:00:00,
2013-03-25 01:05:00,43.4,24.4,30.15,NNE,12,2.1,7.0,47,0.00,,,0.00,WUHU216DAVISVP2,2013-03-25 06:05:00,
2013-03-25 01:10:00,43.3,24.3,30.15,NNE,31,3.2,7.0,47,0.00,,,0.00,WUHU216DAVISVP2,2013-03-25 06:10:00,
2013-03-25 01:15:00,43.0,24.6,30.15,NNE,24,2.1,7.0,48,0.00,,,0.00,WUHU216DAVISVP2,2013-03-25 06:15:00,
2013-03-25 01:20:00,42.9,24.5,30.15,NNE,33,3.2,7.0,48,0.00,,,0.00,WUHU216DAVISVP2,2013-03-25 06:20:00,
2013-03-25 01:25:00,42.8,24.9,30.15,NNE,16,1.0,5.3,49,0.00,,,0.00,WUHU216DAVISVP2,2013-03-25 06:25:00,
2013-03-25 01:30:00,42.7,24.8,30.15,NNE,26,2.1,5.0,49,0.00,,,0.00,WUHU216DAVISVP2,2013-03-25 06:30:00,
2013-03-25 01:35:00,42.5,24.6,30.15,NNE,31,3.2,5.3,49,0.00,,,0.00,WUHU216DAVISVP2,2013-03-25 06:35:00,
2013-03-25 01:40:00,42.4,25.0,30.15,NNE,12,2.1,5.3,50,0.00,,,0.00,WUHU216DAVISVP2,2013-03-25 06:40:00,
2013-03-25 01:45:00,42.2,24.8,30.16,NNE,26,1.0,5.0,50,0.00,,,0.00,WUHU216DAVISVP2,2013-03-25 06:45:00,
2013-03-25 01:50:00,42.0,24.7,30.16,NNE,16,0.0,4.2,50,0.00,,,0.00,WUHU216DAVISVP2,2013-03-25 06:50:00,
2013-03-25 01:55:00,41.7,24.4,30.16,NNE,16,1.0,4.0,50,0.00,,,0.00,WUHU216DAVISVP2,2013-03-25 06:55:00,
2013-03-25 02:00:00,41.5,24.7,30.17,NNE,16,0.0,4.0,51,0.00,,,0.00,WUHU216DAVISVP2,2013-03-25 07:00:00,
2013-03-25 02:05:00,41.2,24.4,30.17,NNE,16,0.0,3.0,51,0.00,,,0.00,WUHU216DAVISVP2,2013-03-25 07:05:00,
2013-03-25 02:10:00,40.9,24.6,30.17,NNE,16,0.0,2.0,52,0.00,,,0.00,WUHU216DAVISVP2,2013-03-25 07:10:00,
2013-03-25 02:15:00,40.5,24.7,30.17,NNE,16,0.0,1.0,53,0.00,,,0.00,WUHU216DAVISVP2,2013-03-25 07:15:00,
2013-03-25 02:20:00,40.2,24.9,30.17,NNE,16,0.0,0.0,54,0.00,,,0.00,WUHU216DAVISVP2,2013-03-25 07:20:00,
2013-03-25 02:25:00,39.8,25.4,30.17,NNE,16,0.0,0.0,56,0.00,,,0.00,WUHU216DAVISVP2,2013-03-25 07:25:00,
2013-03-25 02:30:00,39.5,25.1,30.17,NNE,16,0.0,0.0,56,0.00,,,0.00,WUHU216DAVISVP2,2013-03-25 07:30:00,
2013-03-25 02:35:00,38.7,24.8,30.17,NNE,16,0.0,0.0,57,0.00,,,0.00,WUHU216DAVISVP2,2013-03-25 07:35:00,
2013-03-25 02:40:00,38.4,25.3,30.18,NNE,16,0.0,0.0,59,0.00,,,0.00,WUHU216DAVISVP2,2013-03-25 07:40:00,
2013-03-25 02:45:00,38.2,25.1,30.18,NNE,16,0.0,0.0,59,0.00,,,0.00,WUHU216DAVISVP2,2013-03-25 07:45:00,
2013-03-25 02:50:00,38.1,25.1,30.18,NNE,16,0.0,0.0,59,0.00,,,0.00,WUHU216DAVISVP2,2013-03-25 07:50:00,
2013-03-25 02:55:00,38.0,25.0,30.18,NNE,16,0.0,0.0,59,0.00,,,0.00,WUHU216DAVISVP2,2013-03-25 07:55:00,
2013-03-25 03:00:00,37.7,25.1,30.18,NNE,16,0.0,0.0,60,0.00,,,0.00,WUHU216DAVISVP2,2013-03-25 08:00:00,
2013-03-25 03:05:00,37.5,24.9,30.18,NNE,12,1.0,2.1,60,0.00,,,0.00,WUHU216DAVISVP2,2013-03-25 08:05:00,
2013-03-25 03:10:00,37.5,24.9,30.17,North,2,1.0,3.2,60,0.00,,,0.00,WUHU216DAVISVP2,2013-03-25 08:10:00,
2013-03-25 03:15:00,37.6,25.0,30.18,NNE,21,2.1,3.2,60,0.00,,,0.00,WUHU216DAVISVP2,2013-03-25 08:15:00,
2013-03-25 03:20:00,37.7,25.1,30.18,North,2,2.1,3.2,60,0.00,,,0.00,WUHU216DAVISVP2,2013-03-25 08:20:00,
2013-03-25 03:25:00,38.0,25.4,30.18,North,357,2.1,4.2,60,0.00,,,0.00,WUHU216DAVISVP2,2013-03-25 08:25:00,
2013-03-25 03:30:00,38.3,25.7,30.18,NNE,12,2.1,4.2,60,0.00,,,0.00,WUHU216DAVISVP2,2013-03-25 08:30:00,
2013-03-25 03:35:00,38.6,25.6,30.18,North,2,3.2,4.2,59,0.00,,,0.00,WUHU216DAVISVP2,2013-03-25 08:35:00,
2013-03-25 03:40:00,39.2,25.6,30.17,NNE,17,4.2,6.3,58,0.00,,,0.00,WUHU216DAVISVP2,2013-03-25 08:40:00,
2013-03-25 03:45:00,39.6,25.6,30.18,North,7,2.1,6.3,57,0.00,,,0.00,WUHU216DAVISVP2,2013-03-25 08:45:00,
2013-03-25 03:50:00,39.8,25.8,30.17,North,357,3.2,7.3,57,0.00,,,0.00,WUHU216DAVISVP2,2013-03-25 08:50:00,
2013-03-25 03:55:00,39.8,25.4,30.17,North,355,2.1,7.3,56,0.00,,,0.00,WUHU216DAVISVP2,2013-03-25 08:55:00,
2013-03-25 04:00:00,39.8,25.4,30.17,NNE,18,2.1,7.0,56,0.00,,,0.00,WUHU216DAVISVP2,2013-03-25 09:00:00,
2013-03-25 04:05:00,39.7,25.7,30.17,North,2,1.0,4.2,57,0.00,,,0.00,WUHU216DAVISVP2,2013-03-25 09:05:00,
2013-03-25 04:10:00,39.6,25.6,30.18,NNE,26,3.2,4.0,57,0.00,,,0.00,WUHU216DAVISVP2,2013-03-25 09:10:00,
2013-03-25 04:15:00,39.4,25.5,30.18,NNE,20,0.0,4.0,57,0.00,,,0.00,WUHU216DAVISVP2,2013-03-25 09:15:00,
2013-03-25 04:20:00,39.2,25.3,30.18,NNE,19,2.1,4.0,57,0.00,,,0.00,WUHU216DAVISVP2,2013-03-25 09:20:00,
2013-03-25 04:25:00,39.0,25.5,30.18,NNE,28,0.0,4.0,58,0.00,,,0.00,WUHU216DAVISVP2,2013-03-25 09:25:00,
2013-03-25 04:30:00,38.8,25.3,30.18,NNE,16,1.0,3.2,58,0.00,,,0.00,WUHU216DAVISVP2,2013-03-25 09:30:00,
2013-03-25 04:35:00,38.5,25.5,30.19,NNE,18,0.0,3.0,59,0.00,,,0.00,WUHU216DAVISVP2,2013-03-25 09:35:00,
2013-03-25 04:40:00,38.3,25.3,30.19,NE,35,0.0,3.2,59,0.00,,,0.00,WUHU216DAVISVP2,2013-03-25 09:40:00,
2013-03-25 04:45:00,38.2,25.1,30.19,NE,36,0.0,3.2,59,0.00,,,0.00,WUHU216DAVISVP2,2013-03-25 09:45:00,
2013-03-25 04:50:00,38.0,24.9,30.19,NE,36,2.1,3.2,59,0.00,,,0.00,WUHU216DAVISVP2,2013-03-25 09:50:00,
2013-03-25 04:55:00,37.8,25.1,30.20,NE,50,2.1,3.2,60,0.00,,,0.00,WUHU216DAVISVP2,2013-03-25 09:55:00,
2013-03-25 05:00:00,37.8,25.1,30.20,NE,36,0.0,3.2,60,0.00,,,0.00,WUHU216DAVISVP2,2013-03-25 10:00:00,
2013-03-25 05:05:00,37.7,25.1,30.20,NE,35,0.0,3.0,60,0.00,,,0.00,WUHU216DAVISVP2,2013-03-25 10:05:00,
2013-03-25 05:10:00,37.5,25.3,30.20,NE,43,0.0,3.0,61,0.00,,,0.00,WUHU216DAVISVP2,2013-03-25 10:10:00,
2013-03-25 05:15:00,37.2,25.0,30.21,NNE,18,2.1,3.0,61,0.00,,,0.00,WUHU216DAVISVP2,2013-03-25 10:15:00,
2013-03-25 05:20:00,37.1,25.3,30.21,NNE,12,2.1,3.2,62,0.00,,,0.00,WUHU216DAVISVP2,2013-03-25 10:20:00,
2013-03-25 05:25:00,37.3,25.5,30.21,NE,37,1.0,4.2,62,0.00,,,0.00,WUHU216DAVISVP2,2013-03-25 10:25:00,
2013-03-25 05:30:00,37.4,25.2,30.22,NNE,24,2.1,4.2,61,0.00,,,0.00,WUHU216DAVISVP2,2013-03-25 10:30:00,
2013-03-25 05:35:00,37.6,25.4,30.22,NNE,29,3.2,5.0,61,0.00,,,0.00,WUHU216DAVISVP2,2013-03-25 10:35:00,
2013-03-25 05:40:00,37.9,25.7,30.22,North,2,4.2,5.3,61,0.00,,,0.00,WUHU216DAVISVP2,2013-03-25 10:40:00,
2013-03-25 05:45:00,38.2,25.6,30.22,NNE,23,4.2,8.4,60,0.00,,,0.00,WUHU216DAVISVP2,2013-03-25 10:45:00,
2013-03-25 05:50:00,38.7,25.6,30.22,NNE,26,6.3,9.4,59,0.00,,,0.00,WUHU216DAVISVP2,2013-03-25 10:50:00,
2013-03-25 05:56:00,39.2,25.7,30.22,NNE,12,6.3,10.5,58,0.00,,,0.00,WUHU216DAVISVP2,2013-03-25 10:56:00,
2013-03-25 06:01:00,39.5,25.1,30.22,NNE,31,3.2,10.5,56,0.00,,,0.00,WUHU216DAVISVP2,2013-03-25 11:01:00,
2013-03-25 06:06:00,39.8,24.9,30.22,NE,36,5.3,11.0,55,0.00,,,0.00,WUHU216DAVISVP2,2013-03-25 11:06:00,
2013-03-25 06:11:00,40.1,24.8,30.23,ENE,57,5.3,11.0,54,0.00,,,0.00,WUHU216DAVISVP2,2013-03-25 11:11:00,
2013-03-25 06:16:00,40.2,24.9,30.23,North,2,5.3,11.0,54,0.00,,,0.00,WUHU216DAVISVP2,2013-03-25 11:16:00,
2013-03-25 06:21:00,40.2,24.4,30.24,NE,43,3.2,11.0,53,0.00,,,0.00,WUHU216DAVISVP2,2013-03-25 11:21:00,
2013-03-25 06:26:00,40.2,24.4,30.24,NE,47,5.3,11.0,53,0.00,,,0.00,WUHU216DAVISVP2,2013-03-25 11:26:00,
2013-03-25 06:31:00,40.1,24.3,30.24,NNE,22,3.2,10.0,53,0.00,,,0.00,WUHU216DAVISVP2,2013-03-25 11:31:00,
2013-03-25 06:36:00,40.1,24.3,30.25,NE,44,5.3,11.6,53,0.00,,,0.00,WUHU216DAVISVP2,2013-03-25 11:36:00,
2013-03-25 06:41:00,40.1,24.3,30.25,NNE,23,4.2,11.6,53,0.00,,,0.00,WUHU216DAVISVP2,2013-03-25 11:41:00,
2013-03-25 06:46:00,40.1,24.3,30.25,NNE,20,7.3,11.6,53,0.00,,,0.00,WUHU216DAVISVP2,2013-03-25 11:46:00,
2013-03-25 06:52:00,40.1,23.9,30.25,NE,36,6.3,11.6,52,0.00,,,0.00,WUHU216DAVISVP2,2013-03-25 11:52:00,
2013-03-25 06:57:00,40.2,23.9,30.26,ENE,58,6.3,12.6,52,0.00,,,0.00,WUHU216DAVISVP2,2013-03-25 11:57:00,
2013-03-25 07:02:00,40.3,24.0,30.26,North,7,6.3,12.6,52,0.00,,,0.00,WUHU216DAVISVP2,2013-03-25 12:02:00,
2013-03-25 07:07:00,40.3,24.0,30.26,NNE,30,8.4,13.6,52,0.00,,,0.00,WUHU216DAVISVP2,2013-03-25 12:07:00,
2013-03-25 07:12:00,40.2,24.0,30.26,NE,46,8.4,13.6,52,0.00,,,0.00,WUHU216DAVISVP2,2013-03-25 12:12:00,
2013-03-25 07:17:00,40.1,23.9,30.26,NE,46,4.2,13.0,52,0.00,,,0.00,WUHU216DAVISVP2,2013-03-25 12:17:00,
2013-03-25 07:22:00,40.0,23.8,30.27,NNE,27,6.3,13.0,52,0.00,,,0.00,WUHU216DAVISVP2,2013-03-25 12:22:00,
2013-03-25 07:27:00,39.9,23.7,30.27,NE,49,5.3,14.7,52,0.00,,,0.00,WUHU216DAVISVP2,2013-03-25 12:27:00,
2013-03-25 07:32:00,39.8,23.6,30.28,NE,39,8.4,14.7,52,0.00,,,0.00,WUHU216DAVISVP2,2013-03-25 12:32:00,
2013-03-25 07:37:00,39.8,23.6,30.28,NNW,343,7.3,14.0,52,0.00,,,0.00,WUHU216DAVISVP2,2013-03-25 12:37:00,
2013-03-25 07:42:00,39.7,23.5,30.28,NE,45,7.3,12.0,52,0.00,,,0.00,WUHU216DAVISVP2,2013-03-25 12:42:00,
2013-03-25 07:47:00,39.7,23.5,30.29,NE,51,6.3,13.6,52,0.00,,,0.00,WUHU216DAVISVP2,2013-03-25 12:47:00,
2013-03-25 07:52:00,39.7,23.5,30.29,NE,43,6.3,13.6,52,0.00,,,0.00,WUHU216DAVISVP2,2013-03-25 12:52:00,
2013-03-25 07:57:00,40.0,23.3,30.29,NE,47,4.2,13.6,51,0.00,,,0.00,WUHU216DAVISVP2,2013-03-25 12:57:00,
2013-03-25 08:02:00,40.1,23.4,30.30,NE,49,2.1,13.0,51,0.00,,,0.00,WUHU216DAVISVP2,2013-03-25 13:02:00,
2013-03-25 08:07:00,40.3,23.1,30.30,NE,41,2.1,13.0,50,0.00,,,0.00,WUHU216DAVISVP2,2013-03-25 13:07:00,
2013-03-25 08:12:00,40.5,23.3,30.30,NE,45,6.3,11.6,50,0.00,,,0.00,WUHU216DAVISVP2,2013-03-25 13:12:00,
2013-03-25 08:17:00,40.7,23.4,30.31,NE,35,6.3,13.6,50,0.00,,,0.00,WUHU216DAVISVP2,2013-03-25 13:17:00,
2013-03-25 08:22:00,40.8,23.0,30.31,NNE,16,5.3,13.6,49,0.00,,,0.00,WUHU216DAVISVP2,2013-03-25 13:22:00,
2013-03-25 08:27:00,41.0,23.2,30.31,NE,41,3.2,13.0,49,0.00,,,0.00,WUHU216DAVISVP2,2013-03-25 13:27:00,
2013-03-25 08:32:00,41.3,23.5,30.32,NNE,29,6.3,13.0,49,0.00,,,0.00,WUHU216DAVISVP2,2013-03-25 13:32:00,
2013-03-25 08:37:00,41.5,23.7,30.32,NE,41,6.3,12.0,49,0.00,,,0.00,WUHU216DAVISVP2,2013-03-25 13:37:00,
2013-03-25 08:42:00,41.7,22.8,30.33,NE,44,4.2,12.0,47,0.00,,,0.00,WUHU216DAVISVP2,2013-03-25 13:42:00,
2013-03-25 08:47:00,42.0,23.1,30.33,NE,49,6.3,15.8,47,0.00,,,0.00,WUHU216DAVISVP2,2013-03-25 13:47:00,
2013-03-25 08:52:00,42.2,22.8,30.33,NNE,18,9.4,15.8,46,0.00,,,0.00,WUHU216DAVISVP2,2013-03-25 13:52:00,
2013-03-25 08:57:00,42.4,22.4,30.33,NNE,18,12.6,16.8,45,0.00,,,0.00,WUHU216DAVISVP2,2013-03-25 13:57:00,
2013-03-25 09:02:00,42.7,22.7,30.33,NNE,22,12.6,16.8,45,0.00,,,0.00,WUHU216DAVISVP2,2013-03-25 14:02:00,
2013-03-25 09:07:00,43.0,22.4,30.33,NE,43,9.4,16.0,44,0.00,,,0.00,WUHU216DAVISVP2,2013-03-25 14:07:00,
2013-03-25 09:12:00,43.2,22.6,30.34,NE,43,8.4,17.9,44,0.00,,,0.00,WUHU216DAVISVP2,2013-03-25 14:12:00,
2013-03-25 09:17:00,43.4,21.7,30.34,NNE,25,15.8,17.9,42,0.00,,,0.00,WUHU216DAVISVP2,2013-03-25 14:17:00,
2013-03-25 09:22:00,43.4,22.2,30.34,NE,47,9.4,18.9,43,0.00,,,0.00,WUHU216DAVISVP2,2013-03-25 14:22:00,
2013-03-25 09:27:00,43.6,21.8,30.34,NE,51,12.6,19.0,42,0.00,,,0.00,WUHU216DAVISVP2,2013-03-25 14:27:00,
2013-03-25 09:32:00,43.9,22.1,30.33,NNE,12,9.4,19.0,42,0.00,,,0.00,WUHU216DAVISVP2,2013-03-25 14:32:00,
2013-03-25 09:37:00,44.3,21.3,30.33,North,7,15.8,22.0,40,0.00,,,0.00,WUHU216DAVISVP2,2013-03-25 14:37:00,
2013-03-25 09:42:00,44.7,21.7,30.33,NE,35,20.0,22.0,40,0.00,,,0.00,WUHU216DAVISVP2,2013-03-25 14:42:00,
2013-03-25 09:47:00,45.3,21.6,30.33,NE,36,16.8,21.0,39,0.00,,,0.00,WUHU216DAVISVP2,2013-03-25 14:47:00,
2013-03-25 09:52:00,45.9,21.5,30.34,NE,39,20.0,21.0,38,0.00,,,0.00,WUHU216DAVISVP2,2013-03-25 14:52:00,
2013-03-25 09:57:00,46.2,21.8,30.34,NNE,12,12.6,25.2,38,0.00,,,0.00,WUHU216DAVISVP2,2013-03-25 14:57:00,
2013-03-25 10:02:00,46.3,21.2,30.34,NNE,12,13.6,25.2,37,0.00,,,0.00,WUHU216DAVISVP2,2013-03-25 15:02:00,
2013-03-25 10:07:00,46.5,21.4,30.34,NNE,22,10.5,24.0,37,0.00,,,0.00,WUHU216DAVISVP2,2013-03-25 15:07:00,
2013-03-25 10:12:00,46.7,21.6,30.34,NE,35,14.7,22.0,37,0.00,,,0.00,WUHU216DAVISVP2,2013-03-25 15:12:00,
2013-03-25 10:17:00,47.4,20.9,30.34,NE,43,13.6,22.0,35,0.00,,,0.00,WUHU216DAVISVP2,2013-03-25 15:17:00,
2013-03-25 10:22:00,47.9,22.0,30.35,NE,39,16.8,20.0,36,0.00,,,0.00,WUHU216DAVISVP2,2013-03-25 15:22:00,
2013-03-25 10:27:00,48.3,21.0,30.35,NE,43,7.3,19.0,34,0.00,,,0.00,WUHU216DAVISVP2,2013-03-25 15:27:00,
2013-03-25 10:32:00,48.9,22.2,30.35,NNE,27,9.4,19.0,35,0.00,,,0.00,WUHU216DAVISVP2,2013-03-25 15:32:00,
2013-03-25 10:38:00,49.3,22.6,30.36,NNE,12,7.3,19.0,35,0.00,,,0.00,WUHU216DAVISVP2,2013-03-25 15:38:00,
2013-03-25 10:43:00,50.0,21.8,30.36,North,2,8.4,18.0,33,0.00,,,0.00,WUHU216DAVISVP2,2013-03-25 15:43:00,
2013-03-25 10:48:00,50.5,22.2,30.36,NE,42,8.4,16.0,33,0.00,,,0.00,WUHU216DAVISVP2,2013-03-25 15:48:00,
2013-03-25 10:53:00,51.0,21.2,30.36,NNE,26,12.6,16.8,31,0.00,,,0.00,WUHU216DAVISVP2,2013-03-25 15:53:00,
2013-03-25 10:58:00,51.1,20.5,30.36,NNE,19,12.6,18.9,30,0.00,,,0.00,WUHU216DAVISVP2,2013-03-25 15:58:00,
2013-03-25 11:03:00,51.7,19.4,30.36,NNE,33,12.6,18.9,28,0.00,,,0.00,WUHU216DAVISVP2,2013-03-25 16:03:00,
2013-03-25 11:08:00,52.1,18.9,30.36,NNE,33,12.6,18.0,27,0.00,,,0.00,WUHU216DAVISVP2,2013-03-25 16:08:00,
2013-03-25 11:13:00,52.1,18.1,30.36,NE,40,10.5,18.0,26,0.00,,,0.00,WUHU216DAVISVP2,2013-03-25 16:13:00,
2013-03-25 11:18:00,52.5,18.4,30.37,NNE,27,14.7,17.0,26,0.00,,,0.00,WUHU216DAVISVP2,2013-03-25 16:18:00,
2013-03-25 11:23:00,52.8,18.7,30.37,NE,35,10.5,16.8,26,0.00,,,0.00,WUHU216DAVISVP2,2013-03-25 16:23:00,
2013-03-25 11:28:00,52.8,16.8,30.37,ENE,73,4.2,16.8,24,0.00,,,0.00,WUHU216DAVISVP2,2013-03-25 16:28:00,
2013-03-25 11:33:00,53.1,13.0,30.37,NE,47,9.4,17.9,20,0.00,,,0.00,WUHU216DAVISVP2,2013-03-25 16:33:00,
2013-03-25 11:38:00,53.1,17.1,30.37,NE,54,8.4,17.9,24,0.00,,,0.00,WUHU216DAVISVP2,2013-03-25 16:38:00,
2013-03-25 11:43:00,53.5,15.5,30.37,NE,47,6.3,17.0,22,0.00,,,0.00,WUHU216DAVISVP2,2013-03-25 16:43:00,
2013-03-25 11:48:00,54.3,15.1,30.37,NE,42,7.3,16.0,21,0.00,,,0.00,WUHU216DAVISVP2,2013-03-25 16:48:00,
2013-03-25 11:53:00,54.4,16.2,30.37,NE,52,8.4,15.0,22,0.00,,,0.00,WUHU216DAVISVP2,2013-03-25 16:53:00,
2013-03-25 11:58:00,54.4,14.1,30.36,East,82,2.1,15.0,20,0.00,,,0.00,WUHU216DAVISVP2,2013-03-25 16:58:00,
2013-03-25 12:03:00,54.2,15.0,30.36,ENE,66,5.3,15.0,21,0.00,,,0.00,WUHU216DAVISVP2,2013-03-25 17:03:00,
2013-03-25 12:08:00,55.0,16.7,30.36,NNE,12,8.4,13.0,22,0.00,,,0.00,WUHU216DAVISVP2,2013-03-25 17:08:00,
2013-03-25 12:13:00,55.8,15.2,30.35,NE,42,10.5,15.0,20,0.00,,,0.00,WUHU216DAVISVP2,2013-03-25 17:13:00,
2013-03-25 12:18:00,56.0,14.2,30.35,NE,35,4.2,15.0,19,0.00,,,0.00,WUHU216DAVISVP2,2013-03-25 17:18:00,
2013-03-25 12:23:00,56.0,13.0,30.35,NNE,23,2.1,15.0,18,0.00,,,0.00,WUHU216DAVISVP2,2013-03-25 17:23:00,
2013-03-25 12:28:00,56.0,11.7,30.35,ENE,76,4.2,14.0,17,0.00,,,0.00,WUHU216DAVISVP2,2013-03-25 17:28:00,
2013-03-25 12:33:00,56.0,13.0,30.35,ENE,60,6.3,14.0,18,0.00,,,0.00,WUHU216DAVISVP2,2013-03-25 17:33:00,
2013-03-25 12:38:00,55.8,12.9,30.35,NE,54,6.3,10.5,18,0.00,,,0.00,WUHU216DAVISVP2,2013-03-25 17:38:00,
2013-03-25 12:43:00,56.2,11.9,30.34,NE,51,11.6,11.6,17,0.00,,,0.00,WUHU216DAVISVP2,2013-03-25 17:43:00,
2013-03-25 12:48:00,56.3,10.6,30.34,ENE,69,3.2,11.6,16,0.00,,,0.00,WUHU216DAVISVP2,2013-03-25 17:48:00,
2013-03-25 12:53:00,56.9,12.5,30.34,ENE,59,5.3,12.0,17,0.00,,,0.00,WUHU216DAVISVP2,2013-03-25 17:53:00,
2013-03-25 12:58:00,57.2,12.7,30.34,ENE,63,7.3,14.7,17,0.00,,,0.00,WUHU216DAVISVP2,2013-03-25 17:58:00,
2013-03-25 13:03:00,57.5,11.6,30.34,East,89,5.3,15.0,16,0.00,,,0.00,WUHU216DAVISVP2,2013-03-25 18:03:00,
2013-03-25 13:08:00,57.7,10.3,30.33,ENE,71,2.1,15.0,15,0.00,,,0.00,WUHU216DAVISVP2,2013-03-25 18:08:00,
2013-03-25 13:13:00,57.9,10.4,30.33,North,7,3.2,15.0,15,0.00,,,0.00,WUHU216DAVISVP2,2013-03-25 18:13:00,
2013-03-25 13:18:00,57.8,11.8,30.33,NE,34,6.3,13.6,16,0.00,,,0.00,WUHU216DAVISVP2,2013-03-25 18:18:00,
2013-03-25 13:23:00,58.1,10.6,30.32,NE,42,10.5,13.6,15,0.00,,,0.00,WUHU216DAVISVP2,2013-03-25 18:23:00,
2013-03-25 13:28:00,58.6,11.0,30.32,NE,40,14.7,14.7,15,0.00,,,0.00,WUHU216DAVISVP2,2013-03-25 18:28:00,
2013-03-25 13:34:00,59.1,12.9,30.32,NE,41,2.1,15.0,16,0.00,,,0.00,WUHU216DAVISVP2,2013-03-25 18:34:00,
2013-03-25 13:39:00,59.5,13.2,30.32,NNE,16,2.1,15.0,16,0.00,,,0.00,WUHU216DAVISVP2,2013-03-25 18:39:00,
2013-03-25 13:44:00,59.5,13.2,30.31,ENE,60,10.5,15.0,16,0.00,,,0.00,WUHU216DAVISVP2,2013-03-25 18:44:00,
2013-03-25 13:49:00,59.1,11.4,30.31,SE,133,2.1,13.6,15,0.00,,,0.00,WUHU216DAVISVP2,2013-03-25 18:49:00,
2013-03-25 13:54:00,59.0,9.7,30.31,NNE,33,3.2,13.0,14,0.00,,,0.00,WUHU216DAVISVP2,2013-03-25 18:54:00,
2013-03-25 13:59:00,58.6,9.4,30.31,ESE,103,2.1,13.0,14,0.00,,,0.00,WUHU216DAVISVP2,2013-03-25 18:59:00,
2013-03-25 14:04:00,59.3,14.4,30.30,NE,39,7.3,12.0,17,0.00,,,0.00,WUHU216DAVISVP2,2013-03-25 19:04:00,
2013-03-25 14:09:00,59.9,14.9,30.30,ENE,58,6.3,12.0,17,0.00,,,0.00,WUHU216DAVISVP2,2013-03-25 19:09:00,
2013-03-25 14:14:00,60.0,13.6,30.30,NE,47,5.3,14.7,16,0.00,,,0.00,WUHU216DAVISVP2,2013-03-25 19:14:00,
2013-03-25 14:19:00,60.7,11.1,30.30,NNW,336,9.4,14.7,14,0.00,,,0.00,WUHU216DAVISVP2,2013-03-25 19:19:00,
2013-03-25 14:24:00,60.9,12.8,30.30,NNE,29,5.3,14.0,15,0.00,,,0.00,WUHU216DAVISVP2,2013-03-25 19:24:00,
2013-03-25 14:29:00,61.3,13.2,30.30,NE,40,11.6,17.9,15,0.00,,,0.00,WUHU216DAVISVP2,2013-03-25 19:29:00,
2013-03-25 14:34:00,61.1,14.5,30.30,NE,46,5.3,17.9,16,0.00,,,0.00,WUHU216DAVISVP2,2013-03-25 19:34:00,
2013-03-25 14:39:00,60.9,9.6,30.29,East,99,5.3,17.0,13,0.00,,,0.00,WUHU216DAVISVP2,2013-03-25 19:39:00,
2013-03-25 14:44:00,60.3,12.4,30.29,ENE,58,2.1,17.0,15,0.00,,,0.00,WUHU216DAVISVP2,2013-03-25 19:44:00,
2013-03-25 14:49:00,60.3,12.4,30.29,East,81,1.0,13.6,15,0.00,,,0.00,WUHU216DAVISVP2,2013-03-25 19:49:00,
2013-03-25 14:54:00,60.8,11.2,30.29,East,86,1.0,13.0,14,0.00,,,0.00,WUHU216DAVISVP2,2013-03-25 19:54:00,
2013-03-25 14:59:00,61.2,9.8,30.28,ENE,64,4.2,13.0,13,0.00,,,0.00,WUHU216DAVISVP2,2013-03-25 19:59:00,
2013-03-25 15:04:00,60.7,12.7,30.28,ESE,106,3.2,13.0,15,0.00,,,0.00,WUHU216DAVISVP2,2013-03-25 20:04:00,
2013-03-25 15:09:00,60.4,12.4,30.28,NNE,26,2.1,13.0,15,0.00,,,0.00,WUHU216DAVISVP2,2013-03-25 20:09:00,
2013-03-25 15:14:00,61.4,10.0,30.27,ENE,68,3.2,14.0,13,0.00,,,0.00,WUHU216DAVISVP2,2013-03-25 20:14:00,
2013-03-25 15:19:00,60.2,7.3,30.28,ESE,105,3.2,14.0,12,0.00,,,0.00,WUHU216DAVISVP2,2013-03-25 20:19:00,
2013-03-25 15:24:00,60.3,13.8,30.27,NE,51,4.2,14.0,16,0.00,,,0.00,WUHU216DAVISVP2,2013-03-25 20:24:00,
2013-03-25 15:29:00,61.3,13.2,30.27,North,7,6.3,14.0,15,0.00,,,0.00,WUHU216DAVISVP2,2013-03-25 20:29:00,
2013-03-25 15:34:00,62.1,15.3,30.26,NE,54,2.1,12.6,16,0.00,,,0.00,WUHU216DAVISVP2,2013-03-25 20:34:00,
2013-03-25 15:39:00,62.3,12.4,30.26,ENE,73,0.0,12.0,14,0.00,,,0.00,WUHU216DAVISVP2,2013-03-25 20:39:00,
2013-03-25 15:44:00,61.7,11.9,30.26,East,97,1.0,12.0,14,0.00,,,0.00,WUHU216DAVISVP2,2013-03-25 20:44:00,
2013-03-25 15:49:00,61.4,11.7,30.26,NNE,19,11.6,11.6,14,0.00,,,0.00,WUHU216DAVISVP2,2013-03-25 20:49:00,
2013-03-25 15:54:00,62.2,12.3,30.26,NNE,26,7.3,13.6,14,0.00,,,0.00,WUHU216DAVISVP2,2013-03-25 20:54:00,
2013-03-25 15:59:00,62.9,11.1,30.25,North,349,3.2,13.6,13,0.00,,,0.00,WUHU216DAVISVP2,2013-03-25 20:59:00,
2013-03-25 16:04:00,63.0,11.2,30.25,East,94,3.2,13.0,13,0.00,,,0.00,WUHU216DAVISVP2,2013-03-25 21:04:00,
2013-03-25 16:09:00,62.5,12.5,30.25,North,357,10.5,12.0,14,0.00,,,0.00,WUHU216DAVISVP2,2013-03-25 21:09:00,
2013-03-25 16:14:00,62.4,12.5,30.25,NW,319,7.3,12.0,14,0.00,,,0.00,WUHU216DAVISVP2,2013-03-25 21:14:00,
2013-03-25 16:19:00,61.8,10.4,30.25,WNW,302,2.1,11.6,13,0.00,,,0.00,WUHU216DAVISVP2,2013-03-25 21:19:00,
2013-03-25 16:24:00,61.8,13.6,30.25,ENE,78,2.1,11.0,15,0.00,,,0.00,WUHU216DAVISVP2,2013-03-25 21:24:00,
2013-03-25 16:29:00,62.4,14.0,30.25,NNW,348,3.2,11.0,15,0.00,,,0.00,WUHU216DAVISVP2,2013-03-25 21:29:00,
2013-03-25 16:34:00,63.1,13.0,30.25,NE,52,6.3,13.6,14,0.00,,,0.00,WUHU216DAVISVP2,2013-03-25 21:34:00,
2013-03-25 16:39:00,63.1,13.0,30.25,ENE,72,4.2,13.6,14,0.00,,,0.00,WUHU216DAVISVP2,2013-03-25 21:39:00,
2013-03-25 16:44:00,62.5,10.8,30.24,SE,144,2.1,13.0,13,0.00,,,0.00,WUHU216DAVISVP2,2013-03-25 21:44:00,
2013-03-25 16:49:00,61.9,10.4,30.24,ESE,105,1.0,13.0,13,0.00,,,0.00,WUHU216DAVISVP2,2013-03-25 21:49:00,
2013-03-25 16:54:00,61.9,12.1,30.24,NE,51,6.3,12.6,14,0.00,,,0.00,WUHU216DAVISVP2,2013-03-25 21:54:00,
2013-03-25 16:59:00,62.2,12.3,30.24,NNE,12,6.3,12.6,14,0.00,,,0.00,WUHU216DAVISVP2,2013-03-25 21:59:00,
2013-03-25 17:04:00,62.7,12.7,30.24,NE,53,4.2,12.0,14,0.00,,,0.00,WUHU216DAVISVP2,2013-03-25 22:04:00,
2013-03-25 17:09:00,62.3,8.8,30.24,SSW,193,0.0,12.0,12,0.00,,,0.00,WUHU216DAVISVP2,2013-03-25 22:09:00,
2013-03-25 17:14:00,62.4,12.5,30.24,NNW,334,8.4,8.4,14,0.00,,,0.00,WUHU216DAVISVP2,2013-03-25 22:14:00,
2013-03-25 17:19:00,63.2,11.4,30.24,NE,45,0.0,8.4,13,0.00,,,0.00,WUHU216DAVISVP2,2013-03-25 22:19:00,
2013-03-25 17:24:00,63.4,11.5,30.24,NNW,331,5.3,8.4,13,0.00,,,0.00,WUHU216DAVISVP2,2013-03-25 22:24:00,
2013-03-25 17:29:00,63.3,11.5,30.24,East,92,2.1,8.0,13,0.00,,,0.00,WUHU216DAVISVP2,2013-03-25 22:29:00,
2013-03-25 17:34:00,62.9,11.2,30.24,ENE,60,5.3,8.0,13,0.00,,,0.00,WUHU216DAVISVP2,2013-03-25 22:34:00,
2013-03-25 17:39:00,62.5,12.6,30.24,ENE,70,1.0,8.4,14,0.00,,,0.00,WUHU216DAVISVP2,2013-03-25 22:39:00,
2013-03-25 17:44:00,62.1,12.3,30.24,NE,53,2.1,8.4,14,0.00,,,0.00,WUHU216DAVISVP2,2013-03-25 22:44:00,
2013-03-25 17:49:00,61.9,12.1,30.24,ENE,64,1.0,8.0,14,0.00,,,0.00,WUHU216DAVISVP2,2013-03-25 22:49:00,
2013-03-25 17:54:00,62.3,12.4,30.24,NNE,31,3.2,9.0,14,0.00,,,0.00,WUHU216DAVISVP2,2013-03-25 22:54:00,
2013-03-25 17:59:00,62.5,10.8,30.24,NNE,20,0.0,9.0,13,0.00,,,0.00,WUHU216DAVISVP2,2013-03-25 22:59:00,
2013-03-25 18:04:00,62.7,12.7,30.24,NE,35,8.4,10.0,14,0.00,,,0.00,WUHU216DAVISVP2,2013-03-25 23:04:00,
2013-03-25 18:09:00,63.0,12.9,30.24,NNE,12,2.1,10.0,14,0.00,,,0.00,WUHU216DAVISVP2,2013-03-25 23:09:00,
2013-03-25 18:14:00,62.5,10.8,30.24,East,89,3.2,10.0,13,0.00,,,0.00,WUHU216DAVISVP2,2013-03-25 23:14:00,
2013-03-25 18:19:00,61.7,11.9,30.24,East,89,2.1,10.0,14,0.00,,,0.00,WUHU216DAVISVP2,2013-03-25 23:19:00,
2013-03-25 18:24:00,61.4,11.7,30.24,NE,43,5.3,8.4,14,0.00,,,0.00,WUHU216DAVISVP2,2013-03-25 23:24:00,
2013-03-25 18:29:00,61.6,11.8,30.24,East,99,3.2,9.0,14,0.00,,,0.00,WUHU216DAVISVP2,2013-03-25 23:29:00,
2013-03-25 18:34:00,61.2,13.1,30.24,NE,49,4.2,9.0,15,0.00,,,0.00,WUHU216DAVISVP2,2013-03-25 23:34:00,
2013-03-25 18:39:00,61.0,12.9,30.24,ENE,70,1.0,9.0,15,0.00,,,0.00,WUHU216DAVISVP2,2013-03-25 23:39:00,
2013-03-25 18:44:00,60.8,12.8,30.24,NE,44,2.1,8.0,15,0.00,,,0.00,WUHU216DAVISVP2,2013-03-25 23:44:00,
2013-03-25 18:49:00,60.6,12.6,30.24,NE,56,1.0,8.0,15,0.00,,,0.00,WUHU216DAVISVP2,2013-03-25 23:49:00,
2013-03-25 18:54:00,60.5,12.5,30.24,NE,52,2.1,6.0,15,0.00,,,0.00,WUHU216DAVISVP2,2013-03-25 23:54:00,
2013-03-25 18:59:00,60.2,13.8,30.25,NNE,33,0.0,6.0,16,0.00,,,0.00,WUHU216DAVISVP2,2013-03-25 23:59:00,
2013-03-25 19:04:00,59.8,13.4,30.25,East,87,2.1,9.0,16,0.00,,,0.00,WUHU216DAVISVP2,2013-03-26 00:04:00,
2013-03-25 19:09:00,59.2,12.9,30.25,ENE,58,2.1,9.0,16,0.00,,,0.00,WUHU216DAVISVP2,2013-03-26 00:09:00,
2013-03-25 19:14:00,58.7,12.5,30.25,East,89,1.0,9.0,16,0.00,,,0.00,WUHU216DAVISVP2,2013-03-26 00:14:00,
2013-03-25 19:19:00,58.3,13.6,30.25,ENE,70,1.0,9.0,17,0.00,,,0.00,WUHU216DAVISVP2,2013-03-26 00:19:00,
2013-03-25 19:24:00,57.9,14.6,30.26,ENE,76,0.0,7.0,18,0.00,,,0.00,WUHU216DAVISVP2,2013-03-26 00:24:00,
2013-03-25 19:29:00,57.6,14.3,30.26,NE,45,1.0,4.2,18,0.00,,,0.00,WUHU216DAVISVP2,2013-03-26 00:29:00,
2013-03-25 19:34:00,57.3,14.1,30.26,ENE,59,1.0,4.0,18,0.00,,,0.00,WUHU216DAVISVP2,2013-03-26 00:34:00,
2013-03-25 19:39:00,57.2,14.0,30.26,ENE,59,1.0,4.0,18,0.00,,,0.00,WUHU216DAVISVP2,2013-03-26 00:39:00,
2013-03-25 19:44:00,56.4,14.6,30.26,ENE,60,1.0,3.2,19,0.00,,,0.00,WUHU216DAVISVP2,2013-03-26 00:44:00,
2013-03-25 19:49:00,56.0,14.2,30.27,ENE,60,0.0,3.2,19,0.00,,,0.00,WUHU216DAVISVP2,2013-03-26 00:49:00,
2013-03-25 19:54:00,55.5,15.0,30.27,ENE,60,0.0,3.0,20,0.00,,,0.00,WUHU216DAVISVP2,2013-03-26 00:54:00,
2013-03-25 19:59:00,55.0,15.7,30.27,ENE,60,1.0,3.0,21,0.00,,,0.00,WUHU216DAVISVP2,2013-03-26 00:59:00,
2013-03-25 20:04:00,54.3,15.1,30.27,ENE,60,0.0,2.1,21,0.00,,,0.00,WUHU216DAVISVP2,2013-03-26 01:04:00,
2013-03-25 20:09:00,53.8,14.7,30.28,ENE,60,0.0,2.0,21,0.00,,,0.00,WUHU216DAVISVP2,2013-03-26 01:09:00,
2013-03-25 20:14:00,53.2,15.2,30.28,ENE,60,1.0,2.0,22,0.00,,,0.00,WUHU216DAVISVP2,2013-03-26 01:14:00,
2013-03-25 20:19:00,52.7,14.8,30.28,ENE,60,0.0,2.0,22,0.00,,,0.00,WUHU216DAVISVP2,2013-03-26 01:19:00,
2013-03-25 20:24:00,52.3,15.5,30.28,ENE,60,0.0,2.0,23,0.00,,,0.00,WUHU216DAVISVP2,2013-03-26 01:24:00,
2013-03-25 20:29:00,51.9,16.1,30.29,ENE,60,0.0,2.0,24,0.00,,,0.00,WUHU216DAVISVP2,2013-03-26 01:29:00,
2013-03-25 20:34:00,51.5,15.7,30.29,ENE,60,0.0,1.0,24,0.00,,,0.00,WUHU216DAVISVP2,2013-03-26 01:34:00,
2013-03-25 20:39:00,51.1,16.3,30.29,ENE,60,0.0,1.0,25,0.00,,,0.00,WUHU216DAVISVP2,2013-03-26 01:39:00,
2013-03-25 20:44:00,50.7,16.0,30.29,ENE,60,0.0,1.0,25,0.00,,,0.00,WUHU216DAVISVP2,2013-03-26 01:44:00,
2013-03-25 20:49:00,50.5,16.7,30.29,ENE,60,0.0,1.0,26,0.00,,,0.00,WUHU216DAVISVP2,2013-03-26 01:49:00,
2013-03-25 20:54:00,50.2,16.4,30.29,ENE,60,0.0,1.0,26,0.00,,,0.00,WUHU216DAVISVP2,2013-03-26 01:54:00,
2013-03-25 20:59:00,50.0,16.3,30.30,ENE,60,1.0,2.1,26,0.00,,,0.00,WUHU216DAVISVP2,2013-03-26 01:59:00,
2013-03-25 21:04:00,49.8,16.9,30.30,ENE,60,1.0,2.1,27,0.00,,,0.00,WUHU216DAVISVP2,2013-03-26 02:04:00,
2013-03-25 21:09:00,49.7,16.9,30.30,ENE,58,2.1,2.1,27,0.00,,,0.00,WUHU216DAVISVP2,2013-03-26 02:09:00,
2013-03-25 21:14:00,49.4,16.8,30.30,ENE,58,0.0,2.1,27,0.00,,,0.00,WUHU216DAVISVP2,2013-03-26 02:14:00,
2013-03-25 21:19:00,49.3,16.7,30.30,ENE,58,0.0,2.1,27,0.00,,,0.00,WUHU216DAVISVP2,2013-03-26 02:19:00,
2013-03-25 21:24:00,49.2,17.3,30.31,ENE,58,1.0,2.1,28,0.00,,,0.00,WUHU216DAVISVP2,2013-03-26 02:24:00,
2013-03-25 21:29:00,49.0,17.1,30.31,NE,54,1.0,2.1,28,0.00,,,0.00,WUHU216DAVISVP2,2013-03-26 02:29:00,
2013-03-25 21:34:00,49.0,17.1,30.31,NE,37,1.0,3.2,28,0.00,,,0.00,WUHU216DAVISVP2,2013-03-26 02:34:00,
2013-03-25 21:39:00,49.1,17.2,30.31,NE,56,1.0,3.2,28,0.00,,,0.00,WUHU216DAVISVP2,2013-03-26 02:39:00,
2013-03-25 21:44:00,49.1,18.0,30.31,NE,50,2.1,3.2,29,0.00,,,0.00,WUHU216DAVISVP2,2013-03-26 02:44:00,
2013-03-25 21:49:00,49.2,18.1,30.32,NE,51,2.1,3.2,29,0.00,,,0.00,WUHU216DAVISVP2,2013-03-26 02:49:00,
2013-03-25 21:54:00,49.2,18.1,30.32,ENE,61,2.1,4.2,29,0.00,,,0.00,WUHU216DAVISVP2,2013-03-26 02:54:00,
2013-03-25 21:59:00,49.3,18.2,30.32,ENE,57,1.0,4.2,29,0.00,,,0.00,WUHU216DAVISVP2,2013-03-26 02:59:00,
2013-03-25 22:04:00,49.3,18.2,30.33,NE,51,1.0,4.2,29,0.00,,,0.00,WUHU216DAVISVP2,2013-03-26 03:04:00,
2013-03-25 22:09:00,49.2,18.1,30.33,NE,38,1.0,4.0,29,0.00,,,0.00,WUHU216DAVISVP2,2013-03-26 03:09:00,
2013-03-25 22:14:00,49.1,18.8,30.33,NE,44,0.0,4.0,30,0.00,,,0.00,WUHU216DAVISVP2,2013-03-26 03:14:00,
2013-03-25 22:19:00,48.8,18.5,30.33,NE,44,1.0,3.0,30,0.00,,,0.00,WUHU216DAVISVP2,2013-03-26 03:19:00,
2013-03-25 22:24:00,48.6,18.3,30.34,NE,44,1.0,2.0,30,0.00,,,0.00,WUHU216DAVISVP2,2013-03-26 03:24:00,
2013-03-25 22:29:00,48.3,18.8,30.34,NE,44,1.0,2.1,31,0.00,,,0.00,WUHU216DAVISVP2,2013-03-26 03:29:00,
2013-03-25 22:34:00,48.1,18.6,30.34,NE,44,0.0,2.1,31,0.00,,,0.00,WUHU216DAVISVP2,2013-03-26 03:34:00,
2013-03-25 22:39:00,47.7,19.2,30.34,NE,44,0.0,2.1,32,0.00,,,0.00,WUHU216DAVISVP2,2013-03-26 03:39:00,
2013-03-25 22:44:00,47.4,19.0,30.35,NE,44,2.1,2.1,32,0.00,,,0.00,WUHU216DAVISVP2,2013-03-26 03:44:00,
2013-03-25 22:49:00,47.0,18.6,30.35,NE,43,1.0,2.1,32,0.00,,,0.00,WUHU216DAVISVP2,2013-03-26 03:49:00,
2013-03-25 22:54:00,46.7,19.1,30.35,NNE,29,0.0,2.1,33,0.00,,,0.00,WUHU216DAVISVP2,2013-03-26 03:54:00,
2013-03-25 22:59:00,46.5,18.9,30.35,NNE,29,1.0,2.1,33,0.00,,,0.00,WUHU216DAVISVP2,2013-03-26 03:59:00,
2013-03-25 23:00:00,46.5,18.9,30.35,NNE,29,1.0,2.1,33,0.00,,,0.00,WUHU216DAVISVP2,2013-03-26 04:00:00,
2013-03-25 23:05:00,46.2,19.1,30.36,NNE,29,1.0,2.1,34,0.00,,,0.00,WUHU216DAVISVP2,2013-03-26 04:05:00,
2013-03-25 23:10:00,45.9,18.9,30.36,NNE,28,2.1,2.1,34,0.00,,,0.00,WUHU216DAVISVP2,2013-03-26 04:10:00,
2013-03-25 23:15:00,45.6,19.3,30.36,NNE,28,0.0,2.1,35,0.00,,,0.00,WUHU216DAVISVP2,2013-03-26 04:15:00,
2013-03-25 23:20:00,45.3,19.0,30.36,NNE,28,1.0,2.1,35,0.00,,,0.00,WUHU216DAVISVP2,2013-03-26 04:20:00,
2013-03-25 23:25:00,45.0,19.4,30.36,NNE,16,2.1,3.2,36,0.00,,,0.00,WUHU216DAVISVP2,2013-03-26 04:25:00,
2013-03-25 23:30:00,44.7,19.1,30.37,NNE,12,2.1,3.2,36,0.00,,,0.00,WUHU216DAVISVP2,2013-03-26 04:30:00,
2013-03-25 23:35:00,44.6,19.0,30.37,NNE,12,1.0,3.2,36,0.00,,,0.00,WUHU216DAVISVP2,2013-03-26 04:35:00,
2013-03-25 23:40:00,44.4,19.5,30.38,NNE,16,1.0,3.2,37,0.00,,,0.00,WUHU216DAVISVP2,2013-03-26 04:40:00,
2013-03-25 23:45:00,44.3,19.4,30.38,NNE,16,0.0,3.2,37,0.00,,,0.00,WUHU216DAVISVP2,2013-03-26 04:45:00,
2013-03-25 23:50:00,44.1,19.2,30.38,NNE,16,0.0,3.0,37,0.00,,,0.00,WUHU216DAVISVP2,2013-03-26 04:50:00,
2013-03-25 23:55:00,43.9,19.7,30.38,NNE,16,0.0,3.0,38,0.00,,,0.00,WUHU216DAVISVP2,2013-03-26 04:55:00,